{"data":{"norad_id":69841,"intl_designator":"2026-154Y","name":"STARLINK-37433","alt_names":[],"object_type":"PAYLOAD","status":"ACTIVE","operator":null,"country":"US","launch_date":"2026-07-05","launch_site_code":"AFETR","launch_vehicle":null,"mission":null,"orbit_class":"UNKNOWN","rcs_meters":null,"size_class":null,"mass_kg":null,"dimensions":null,"purposes":["comms"],"wikipedia_slug":null,"has_3d_model":false,"image_url":null,"decayed_at":null,"tle_current":{"epoch":"2026-09-20T04:11:19.459392Z","epoch_age_seconds":45888,"freshness":"FRESH","line1":"1 69841U 26154Y   26263.17453078  .00014810  00000+0  44835-3 0  9990","line2":"2 69841  53.1592 333.5463 0003313  85.8347 274.3034 15.34416535 13180","mean_motion":15.34416535,"eccentricity":0.0003313,"inclination_deg":53.1592,"raan_deg":333.5463,"arg_perigee_deg":85.8347,"mean_anomaly_deg":274.3034,"bstar":0.00044835,"rev_number":1318,"period_min":93.8467467701,"perigee_km":460.38774105402,"apogee_km":464.92044923366,"semimajor_km":6840.7910951438,"source":"CELESTRAK","updated_at":"2026-09-20T09:00:44.297126Z"}}}